Regional Weather Roundup
Issued by NWS

Home | Current Version | Previous Version | Text Only | Print | Product List | Glossary Off
Versions: 1 2 3 4 5 6 7 8 9 10 11 12 13 14 15 16 17 18 19 20 21 22 23 24 25 26 27 28 29 30 31 32 33 34 35 36 37 38 39 40 41 42 43 44 45 46 47 48 49 50

558
ASUS44 KJAN 020703
RWRMS

MISSISSIPPI HOURLY WEATHER ROUNDUP
NATIONAL WEATHER SERVICE JACKSON MS
200 AM CDT THU OCT 02 2014

NOTE: "FAIR: INDICATES FEW OR NO CLOUDS BELOW 12,000 FEET WITH NO
SIGNIFICANT WEATHER AND/OR OBSTRUCTIONS TO VISIBILITY.

MSZ001>002-007>008-010>013-018>021-025>028-034>036-020800-
NORTHWEST MISSISSIPPI

CITY           SKY/WX    TMP DP  RH WIND       PRES   REMARKS
CLARKSDALE     FAIR      75  68  78 S8        29.91S
CLEVELAND      FAIR      75  69  82 S8        29.89S
GREENWOOD      PTCLDY    74  66  76 S9        29.92S
GREENVILLE     CLEAR     77  70  79 S12       29.89S
GRENADA        FAIR      68  64  88 S3        29.93S
OLIVE BRANCH   CLEAR     70  66  88 S7        29.92S
OXFORD         FAIR      68  61  77 SE6       29.95S
TUNICA         SUNNY     68  64  88 SE8       29.91S
$$

MSZ003>006-009-014>017-022>024-029>033-037>039-020800-
NORTHEAST MISSISSIPPI

CITY           SKY/WX    TMP DP  RH WIND       PRES   REMARKS
COLUMBUS AFB   CLEAR     71  62  73 S7        29.96R
CORINTH          N/A     64  61  88 CALM      29.95R
GOLDN TRIANGLE CLEAR     70  61  73 S6        29.95S
STARKVILLE     FAIR      66  63  88 S3        29.96S
TUPELO         CLEAR     67  62  84 S5        29.95R
$$

MSZ040-058-020800-
CENTRAL MISSISSIPPI

CITY           SKY/WX    TMP DP  RH WIND       PRES   REMARKS
JACKSON INTL   CLOUDY    76  71  85 S8        29.94R
JACKSON HAWKNS CLOUDY    76  71  85 S10       29.94S
MERIDIAN KEY   PTCLDY    68  65  90 CALM      29.97S
MERIDIAN NAS   CLEAR     69  65  86 CALM      29.97F
RAYMOND        PTSUNNY   75  70  83 SE5       29.93F
VICKSBURG      CLOUDY    78  72  81 S10       29.91S
$$

MSZ059>079-020800-
SOUTH MISSISSIPPI

CITY           SKY/WX    TMP DP  RH WIND       PRES   REMARKS
BROOKHAVEN     CLOUDY    75  73  94 SE7       29.96S
COLUMBIA       CLOUDY    75  73  94 S5        29.94S
HATTIESBURG    CLOUDY    76  73  91 SE6       29.97R
MCCOMB         CLOUDY    76  73  91 SE7       29.95R
NATCHEZ        CLOUDY    75  72  88 SE7       29.93R
PINE BELT      CLOUDY   N/A N/A N/A CALM      29.97S
$$

MSZ080>082-020800-
COASTAL MISSISSIPPI

CITY           SKY/WX    TMP DP  RH WIND       PRES   REMARKS
BILOXI         PTCLDY    80  76  88 S8        29.95S
PASCAGOULA     CLEAR     71  70  96 CALM      29.96S
GULFPORT       CLEAR     78  74  87 SE6       29.95R
$$



USA.gov is the U.S. government's official web portal to all federal, state and local government web resources and services.